Time,TemperatureF,DewpointF,PressureIn,WindDirection,WindDirectionDegrees,WindSpeedMPH,WindSpeedGustMPH,Humidity,HourlyPrecipIn,Conditions,Clouds,dailyrainin,SoftwareType,DateUTC
2013-05-07 00:00:00,62.0,-99.9,29.78,West,265,0.0,0.0,-999,0.00,,,0.00,homebrew,2013-05-07 07:00:00,
2013-05-07 00:05:00,61.8,-99.9,29.78,West,265,0.0,0.0,-999,0.00,,,0.00,homebrew,2013-05-07 07:05:00,
2013-05-07 00:15:00,61.7,-99.9,29.79,WSW,240,0.0,1.1,-999,0.00,,,0.00,homebrew,2013-05-07 07:15:00,
2013-05-07 00:20:00,61.4,-99.9,29.79,WSW,240,0.0,0.0,-999,0.00,,,0.00,homebrew,2013-05-07 07:20:00,
2013-05-07 00:25:00,61.2,-99.9,29.79,SW,236,0.3,0.0,-999,0.00,,,0.00,homebrew,2013-05-07 07:25:00,
2013-05-07 00:30:00,61.3,-99.9,29.79,SW,221,2.0,2.1,-999,0.00,,,0.00,homebrew,2013-05-07 07:30:00,
2013-05-07 00:35:00,61.5,-99.9,29.79,SW,225,3.3,4.7,-999,0.00,,,0.00,homebrew,2013-05-07 07:35:00,
2013-05-07 00:40:00,61.6,-99.9,29.79,SW,225,3.1,6.5,-999,0.00,,,0.00,homebrew,2013-05-07 07:40:00,
2013-05-07 00:45:00,61.4,-99.9,29.79,SW,229,3.4,7.0,-999,0.00,,,0.00,homebrew,2013-05-07 07:45:00,
2013-05-07 00:50:00,61.4,-99.9,29.80,SW,234,3.1,5.8,-999,0.00,,,0.00,homebrew,2013-05-07 07:50:00,
2013-05-07 00:55:00,60.9,-99.9,29.80,WSW,243,2.7,5.5,-999,0.00,,,0.00,homebrew,2013-05-07 07:55:00,
2013-05-07 01:00:00,60.3,-99.9,29.80,WSW,240,2.7,4.9,-999,0.00,,,0.00,homebrew,2013-05-07 08:00:00,
2013-05-07 01:05:00,59.8,-99.9,29.80,WSW,245,2.6,4.9,-999,0.00,,,0.00,homebrew,2013-05-07 08:05:00,
2013-05-07 01:10:00,59.5,-99.9,29.80,WSW,251,2.6,5.3,-999,0.00,,,0.00,homebrew,2013-05-07 08:10:00,
2013-05-07 01:20:00,59.3,-99.9,29.81,WSW,255,2.3,4.0,-999,0.00,,,0.00,homebrew,2013-05-07 08:20:00,
2013-05-07 01:25:00,59.2,-99.9,29.81,WSW,253,2.6,6.5,-999,0.00,,,0.00,homebrew,2013-05-07 08:25:00,
2013-05-07 01:30:00,59.0,-99.9,29.81,WSW,254,1.9,4.7,-999,0.00,,,0.00,homebrew,2013-05-07 08:30:00,
2013-05-07 01:35:00,58.8,-99.9,29.81,WSW,255,2.0,3.9,-999,0.00,,,0.00,homebrew,2013-05-07 08:35:00,
2013-05-07 01:40:00,58.5,-99.9,29.81,WSW,245,2.9,5.0,-999,0.00,,,0.00,homebrew,2013-05-07 08:40:00,
2013-05-07 01:45:00,58.6,-99.9,29.81,SW,236,2.9,5.4,-999,0.00,,,0.00,homebrew,2013-05-07 08:45:00,
2013-05-07 01:50:00,58.5,-99.9,29.81,WSW,240,2.6,6.2,-999,0.00,,,0.00,homebrew,2013-05-07 08:50:00,
2013-05-07 01:55:00,58.4,-99.9,29.81,WSW,242,3.5,4.9,-999,0.00,,,0.00,homebrew,2013-05-07 08:55:00,
2013-05-07 02:00:00,58.6,-99.9,29.81,SW,235,3.1,6.1,-999,0.00,,,0.00,homebrew,2013-05-07 09:00:00,
2013-05-07 02:10:00,58.4,-99.9,29.81,WSW,243,3.8,6.4,-999,0.00,,,0.00,homebrew,2013-05-07 09:10:00,
2013-05-07 02:15:00,58.2,-99.9,29.81,WSW,249,3.5,7.3,-999,0.00,,,0.00,homebrew,2013-05-07 09:15:00,
2013-05-07 02:20:00,58.1,-99.9,29.81,WSW,241,3.7,8.6,-999,0.00,,,0.00,homebrew,2013-05-07 09:20:00,
2013-05-07 02:25:00,58.0,-99.9,29.81,SW,231,4.0,8.3,-999,0.00,,,0.00,homebrew,2013-05-07 09:25:00,
2013-05-07 02:30:00,58.2,-99.9,29.82,SW,223,4.5,9.6,-999,0.00,,,0.00,homebrew,2013-05-07 09:30:00,
2013-05-07 02:35:00,58.2,-99.9,29.82,SW,218,3.4,11.7,-999,0.00,,,0.00,homebrew,2013-05-07 09:35:00,
2013-05-07 02:40:00,57.9,-99.9,29.83,SW,223,3.8,6.0,-999,0.00,,,0.00,homebrew,2013-05-07 09:40:00,
2013-05-07 02:45:00,57.6,-99.9,29.83,SW,223,3.8,9.0,-999,0.00,,,0.00,homebrew,2013-05-07 09:45:00,
2013-05-07 02:50:00,57.4,-99.9,29.83,SSW,210,3.1,7.0,-999,0.00,,,0.00,homebrew,2013-05-07 09:50:00,
2013-05-07 03:00:00,57.0,-99.9,29.83,SSW,198,1.9,5.7,-999,0.00,,,0.00,homebrew,2013-05-07 10:00:00,
2013-05-07 03:05:00,56.7,-99.9,29.83,SSW,207,2.5,6.8,-999,0.00,,,0.00,homebrew,2013-05-07 10:05:00,
2013-05-07 03:10:00,56.5,-99.9,29.83,SW,229,2.8,6.1,-999,0.00,,,0.00,homebrew,2013-05-07 10:10:00,
2013-05-07 03:15:00,56.2,-99.9,29.84,SW,226,3.3,6.5,-999,0.00,,,0.00,homebrew,2013-05-07 10:15:00,
2013-05-07 03:20:00,56.0,-99.9,29.84,SW,227,3.4,6.7,-999,0.00,,,0.00,homebrew,2013-05-07 10:20:00,
2013-05-07 03:25:00,55.8,-99.9,29.84,SW,222,3.3,7.3,-999,0.00,,,0.00,homebrew,2013-05-07 10:25:00,
2013-05-07 03:30:00,55.6,-99.9,29.84,SSW,208,2.3,8.0,-999,0.00,,,0.00,homebrew,2013-05-07 10:30:00,
2013-05-07 03:35:00,55.4,-99.9,29.85,SSW,213,2.9,6.6,-999,0.00,,,0.00,homebrew,2013-05-07 10:35:00,
2013-05-07 03:40:00,55.2,-99.9,29.85,SW,214,3.5,6.4,-999,0.00,,,0.00,homebrew,2013-05-07 10:40:00,
2013-05-07 03:45:00,55.0,-99.9,29.85,SW,217,2.5,8.1,-999,0.00,,,0.00,homebrew,2013-05-07 10:45:00,
2013-05-07 03:50:00,54.7,-99.9,29.85,SW,224,3.3,5.8,-999,0.00,,,0.00,homebrew,2013-05-07 10:50:00,
2013-05-07 04:00:00,54.2,-99.9,29.85,SW,219,4.0,8.7,-999,0.00,,,0.00,homebrew,2013-05-07 11:00:00,
2013-05-07 04:05:00,53.9,-99.9,29.86,SW,221,4.1,9.8,-999,0.00,,,0.00,homebrew,2013-05-07 11:05:00,
2013-05-07 04:10:00,53.6,-99.9,29.86,SW,226,5.4,9.4,-999,0.00,,,0.00,homebrew,2013-05-07 11:10:00,
2013-05-07 04:15:00,53.2,-99.9,29.86,SSW,210,4.4,10.9,-999,0.00,,,0.00,homebrew,2013-05-07 11:15:00,
2013-05-07 04:20:00,52.8,-99.9,29.86,SW,227,5.3,10.6,-999,0.00,,,0.00,homebrew,2013-05-07 11:20:00,
2013-05-07 04:25:00,52.4,-99.9,29.86,SW,223,4.2,12.2,-999,0.00,,,0.00,homebrew,2013-05-07 11:25:00,
2013-05-07 04:30:00,51.9,-99.9,29.87,SW,214,4.9,9.1,-999,0.00,,,0.00,homebrew,2013-05-07 11:30:00,
2013-05-07 04:35:00,51.6,-99.9,29.87,SSW,201,3.8,13.4,-999,0.00,,,0.00,homebrew,2013-05-07 11:35:00,
2013-05-07 04:40:00,51.4,-99.9,29.87,SW,214,3.7,12.0,-999,0.00,,,0.00,homebrew,2013-05-07 11:40:00,
2013-05-07 04:45:00,51.3,-99.9,29.87,SW,219,4.6,14.4,-999,0.00,,,0.00,homebrew,2013-05-07 11:45:00,
2013-05-07 04:55:00,51.6,-99.9,29.88,South,172,1.8,5.6,-999,0.00,,,0.00,homebrew,2013-05-07 11:55:00,
2013-05-07 05:00:00,51.6,-99.9,29.88,SW,214,3.6,7.3,-999,0.00,,,0.00,homebrew,2013-05-07 12:00:00,
2013-05-07 05:05:00,51.5,-99.9,29.88,SSW,209,3.1,11.2,-999,0.00,,,0.00,homebrew,2013-05-07 12:05:00,
2013-05-07 05:10:00,51.7,-99.9,29.88,SSW,213,1.7,9.3,-999,0.00,,,0.00,homebrew,2013-05-07 12:10:00,
2013-05-07 05:15:00,51.6,-99.9,29.88,SSW,203,2.6,7.6,-999,0.00,,,0.00,homebrew,2013-05-07 12:15:00,
2013-05-07 05:20:00,51.6,-99.9,29.88,SSW,201,2.0,10.8,-999,0.00,,,0.00,homebrew,2013-05-07 12:20:00,
2013-05-07 05:25:00,51.6,-99.9,29.88,SSW,205,2.1,7.8,-999,0.00,,,0.00,homebrew,2013-05-07 12:25:00,
2013-05-07 05:30:00,51.7,-99.9,29.89,SSW,194,0.9,9.8,-999,0.00,,,0.00,homebrew,2013-05-07 12:30:00,
2013-05-07 05:35:00,51.8,-99.9,29.89,SSW,196,1.8,5.5,-999,0.00,,,0.00,homebrew,2013-05-07 12:35:00,
2013-05-07 05:40:00,52.0,-99.9,29.89,SSW,205,0.8,7.6,-999,0.00,,,0.00,homebrew,2013-05-07 12:40:00,
2013-05-07 05:45:00,52.1,-99.9,29.89,SSW,206,3.2,4.3,-999,0.00,,,0.00,homebrew,2013-05-07 12:45:00,
2013-05-07 05:50:00,52.2,-99.9,29.89,SSW,201,1.9,8.1,-999,0.00,,,0.00,homebrew,2013-05-07 12:50:00,
2013-05-07 05:55:00,52.3,-99.9,29.89,South,184,2.3,6.2,-999,0.00,,,0.00,homebrew,2013-05-07 12:55:00,
2013-05-07 06:00:00,52.4,-99.9,29.89,SSW,202,2.7,11.6,-999,0.00,,,0.00,homebrew,2013-05-07 13:00:00,
2013-05-07 06:05:00,52.5,-99.9,29.89,SSW,206,3.4,8.0,-999,0.00,,,0.00,homebrew,2013-05-07 13:05:00,
2013-05-07 06:15:00,52.7,-99.9,29.90,SW,214,3.1,7.3,-999,0.00,,,0.00,homebrew,2013-05-07 13:15:00,
2013-05-07 06:20:00,52.4,-99.9,29.90,SSW,210,4.0,12.4,-999,0.00,,,0.00,homebrew,2013-05-07 13:20:00,
2013-05-07 06:25:00,52.0,-99.9,29.90,SW,215,4.9,9.7,-999,0.00,,,0.00,homebrew,2013-05-07 13:25:00,
2013-05-07 06:30:00,51.9,-99.9,29.90,SSW,213,3.0,11.4,-999,0.00,,,0.00,homebrew,2013-05-07 13:30:00,
2013-05-07 06:35:00,52.0,-99.9,29.90,SSW,212,3.3,9.8,-999,0.00,,,0.00,homebrew,2013-05-07 13:35:00,
2013-05-07 06:40:00,52.0,-99.9,29.90,SSW,211,4.2,12.4,-999,0.00,,,0.00,homebrew,2013-05-07 13:40:00,
2013-05-07 06:50:00,52.2,-99.9,29.91,SSW,205,3.3,7.7,-999,0.00,,,0.00,homebrew,2013-05-07 13:50:00,
2013-05-07 06:55:00,52.1,-99.9,29.91,SSW,200,2.9,10.2,-999,0.00,,,0.00,homebrew,2013-05-07 13:55:00,
2013-05-07 07:00:00,52.1,-99.9,29.91,SSW,211,2.3,8.5,-999,0.00,,,0.00,homebrew,2013-05-07 14:00:00,
2013-05-07 07:05:00,52.0,-99.9,29.91,SW,223,4.4,10.5,-999,0.00,,,0.00,homebrew,2013-05-07 14:05:00,
2013-05-07 07:10:00,52.1,-99.9,29.91,SSW,204,3.4,13.3,-999,0.00,,,0.00,homebrew,2013-05-07 14:10:00,
2013-05-07 07:15:00,52.1,-99.9,29.91,SW,217,4.7,9.0,-999,0.00,,,0.00,homebrew,2013-05-07 14:15:00,
2013-05-07 07:20:00,52.3,-99.9,29.92,SSW,195,2.1,10.4,-999,0.00,,,0.00,homebrew,2013-05-07 14:20:00,
2013-05-07 07:25:00,52.5,-99.9,29.92,South,181,3.3,7.3,-999,0.00,,,0.00,homebrew,2013-05-07 14:25:00,
2013-05-07 07:30:00,52.5,-99.9,29.92,SSW,201,4.0,8.1,-999,0.00,,,0.00,homebrew,2013-05-07 14:30:00,
2013-05-07 07:40:00,52.7,-99.9,29.92,SSW,207,3.9,8.9,-999,0.00,,,0.00,homebrew,2013-05-07 14:40:00,
2013-05-07 07:45:00,52.8,-99.9,29.92,SSW,192,3.5,9.7,-999,0.00,,,0.00,homebrew,2013-05-07 14:45:00,
2013-05-07 07:50:00,52.9,-99.9,29.92,South,172,3.2,16.2,-999,0.00,,,0.00,homebrew,2013-05-07 14:50:00,
2013-05-07 07:55:00,52.9,-99.9,29.92,South,188,2.7,8.1,-999,0.00,,,0.00,homebrew,2013-05-07 14:55:00,
2013-05-07 08:00:00,53.1,-99.9,29.92,SSW,197,3.0,8.1,-999,0.00,,,0.00,homebrew,2013-05-07 15:00:00,
2013-05-07 08:05:00,53.3,-99.9,29.93,SSW,200,2.5,8.7,-999,0.00,,,0.00,homebrew,2013-05-07 15:05:00,
2013-05-07 08:10:00,53.4,-99.9,29.92,SSW,208,3.3,7.8,-999,0.00,,,0.00,homebrew,2013-05-07 15:10:00,
2013-05-07 08:15:00,53.6,-99.9,29.92,SSW,195,2.4,6.7,-999,0.00,,,0.00,homebrew,2013-05-07 15:15:00,
2013-05-07 08:20:00,53.8,-99.9,29.92,South,177,0.5,8.6,-999,0.00,,,0.00,homebrew,2013-05-07 15:20:00,
2013-05-07 08:30:00,54.3,-99.9,29.93,South,189,2.2,8.6,-999,0.00,,,0.00,homebrew,2013-05-07 15:30:00,
2013-05-07 08:35:00,54.3,-99.9,29.93,South,173,2.3,5.5,-999,0.00,,,0.00,homebrew,2013-05-07 15:35:00,
2013-05-07 08:40:00,54.3,-99.9,29.93,SSW,210,2.6,6.0,-999,0.00,,,0.00,homebrew,2013-05-07 15:40:00,
2013-05-07 08:45:00,54.3,-99.9,29.94,South,191,3.4,9.8,-999,0.00,,,0.00,homebrew,2013-05-07 15:45:00,
2013-05-07 08:50:00,54.2,-99.9,29.94,SSW,197,3.3,9.3,-999,0.00,,,0.00,homebrew,2013-05-07 15:50:00,
2013-05-07 08:55:00,54.2,-99.9,29.94,SSW,200,3.0,7.4,-999,0.00,,,0.00,homebrew,2013-05-07 15:55:00,
2013-05-07 09:00:00,54.2,-99.9,29.94,South,191,2.6,8.0,-999,0.00,,,0.00,homebrew,2013-05-07 16:00:00,
2013-05-07 09:05:00,54.2,-99.9,29.94,SSW,192,2.6,6.6,-999,0.00,,,0.00,homebrew,2013-05-07 16:05:00,
2013-05-07 09:10:00,54.5,-99.9,29.94,South,184,0.7,7.6,-999,0.00,,,0.00,homebrew,2013-05-07 16:10:00,
2013-05-07 09:15:00,54.6,-99.9,29.94,South,189,3.0,3.0,-999,0.00,,,0.00,homebrew,2013-05-07 16:15:00,
2013-05-07 09:20:00,54.6,-99.9,29.94,South,187,2.1,9.1,-999,0.00,,,0.00,homebrew,2013-05-07 16:20:00,
2013-05-07 09:25:00,54.6,-99.9,29.94,SSW,198,2.0,10.0,-999,0.00,,,0.00,homebrew,2013-05-07 16:25:00,
2013-05-07 09:35:00,54.7,-99.9,29.94,South,188,2.7,7.1,-999,0.00,,,0.00,homebrew,2013-05-07 16:35:00,
2013-05-07 09:40:00,54.9,-99.9,29.94,SSW,192,2.3,7.1,-999,0.00,,,0.00,homebrew,2013-05-07 16:40:00,
2013-05-07 09:45:00,55.0,-99.9,29.94,South,179,1.6,6.0,-999,0.00,,,0.00,homebrew,2013-05-07 16:45:00,
2013-05-07 09:50:00,55.2,-99.9,29.94,South,174,2.6,5.0,-999,0.00,,,0.00,homebrew,2013-05-07 16:50:00,
2013-05-07 09:55:00,55.4,-99.9,29.94,SSE,152,0.9,10.9,-999,0.00,,,0.00,homebrew,2013-05-07 16:55:00,
2013-05-07 10:00:00,55.6,-99.9,29.94,SSW,196,1.2,4.9,-999,0.00,,,0.00,homebrew,2013-05-07 17:00:00,
2013-05-07 10:05:00,55.6,-99.9,29.94,SSW,211,2.3,4.5,-999,0.00,,,0.00,homebrew,2013-05-07 17:05:00,
2013-05-07 10:10:00,55.4,-99.9,29.94,SSW,195,2.1,6.1,-999,0.00,,,0.00,homebrew,2013-05-07 17:10:00,
2013-05-07 10:15:00,55.3,-99.9,29.94,SSW,202,2.4,8.5,-999,0.00,,,0.00,homebrew,2013-05-07 17:15:00,
2013-05-07 10:25:00,55.9,-99.9,29.94,SSW,206,2.5,6.6,-999,0.00,,,0.00,homebrew,2013-05-07 17:25:00,
2013-05-07 10:30:00,56.0,-99.9,29.94,South,190,2.0,9.1,-999,0.00,,,0.00,homebrew,2013-05-07 17:30:00,
2013-05-07 10:35:00,56.4,-99.9,29.94,SSW,213,2.8,5.3,-999,0.00,,,0.00,homebrew,2013-05-07 17:35:00,
2013-05-07 10:40:00,56.1,-99.9,29.94,SW,230,4.2,8.6,-999,0.00,,,0.00,homebrew,2013-05-07 17:40:00,
2013-05-07 10:45:00,56.3,-99.9,29.94,SSW,207,2.9,8.6,-999,0.00,,,0.00,homebrew,2013-05-07 17:45:00,
2013-05-07 10:50:00,56.9,-99.9,29.94,SW,227,3.3,7.3,-999,0.00,,,0.00,homebrew,2013-05-07 17:50:00,
2013-05-07 10:55:00,57.2,-99.9,29.94,SW,232,2.8,6.9,-999,0.00,,,0.00,homebrew,2013-05-07 17:55:00,
2013-05-07 11:00:00,57.5,-99.9,29.94,SW,229,2.1,7.8,-999,0.00,,,0.00,homebrew,2013-05-07 18:00:00,
2013-05-07 11:05:00,57.9,-99.9,29.94,SW,215,3.0,6.8,-999,0.00,,,0.00,homebrew,2013-05-07 18:05:00,
2013-05-07 11:15:00,58.9,-99.9,29.94,SSW,203,2.6,7.6,-999,0.00,,,0.00,homebrew,2013-05-07 18:15:00,
2013-05-07 11:20:00,59.1,-99.9,29.94,South,188,2.1,6.8,-999,0.00,,,0.00,homebrew,2013-05-07 18:20:00,
2013-05-07 11:25:00,59.5,-99.9,29.94,SW,223,3.1,6.3,-999,0.00,,,0.00,homebrew,2013-05-07 18:25:00,
2013-05-07 11:30:00,59.0,-99.9,29.94,SSW,210,3.6,7.5,-999,0.00,,,0.00,homebrew,2013-05-07 18:30:00,
2013-05-07 11:35:00,60.1,-99.9,29.94,SSW,209,3.1,8.9,-999,0.00,,,0.00,homebrew,2013-05-07 18:35:00,
2013-05-07 11:40:00,61.3,-99.9,29.93,SSW,213,2.8,7.0,-999,0.00,,,0.00,homebrew,2013-05-07 18:40:00,
2013-05-07 11:45:00,60.8,-99.9,29.93,WSW,244,5.5,8.8,-999,0.00,,,0.00,homebrew,2013-05-07 18:45:00,
2013-05-07 11:50:00,60.3,-99.9,29.94,SW,221,4.7,10.9,-999,0.00,,,0.00,homebrew,2013-05-07 18:50:00,
2013-05-07 11:55:00,61.0,-99.9,29.94,SW,228,3.5,10.9,-999,0.00,,,0.00,homebrew,2013-05-07 18:55:00,
2013-05-07 12:05:00,61.4,-99.9,29.94,WSW,242,4.4,8.1,-999,0.00,,,0.00,homebrew,2013-05-07 19:05:00,
2013-05-07 12:10:00,62.2,-99.9,29.93,SW,225,4.1,9.4,-999,0.00,,,0.00,homebrew,2013-05-07 19:10:00,
2013-05-07 12:15:00,62.7,-99.9,29.93,SW,227,3.3,8.5,-999,0.00,,,0.00,homebrew,2013-05-07 19:15:00,
2013-05-07 12:20:00,64.1,-99.9,29.93,SSW,200,2.7,8.8,-999,0.00,,,0.00,homebrew,2013-05-07 19:20:00,
2013-05-07 12:25:00,64.2,-99.9,29.93,SW,214,3.1,8.1,-999,0.00,,,0.00,homebrew,2013-05-07 19:25:00,
2013-05-07 12:30:00,65.0,-99.9,29.93,SW,215,2.6,8.6,-999,0.00,,,0.00,homebrew,2013-05-07 19:30:00,
2013-05-07 12:35:00,65.0,-99.9,29.93,SW,220,3.8,8.8,-999,0.00,,,0.00,homebrew,2013-05-07 19:35:00,
2013-05-07 12:40:00,64.8,-99.9,29.93,SSW,202,2.6,13.0,-999,0.00,,,0.00,homebrew,2013-05-07 19:40:00,
2013-05-07 12:45:00,64.5,-99.9,29.93,SW,235,4.4,7.1,-999,0.00,,,0.00,homebrew,2013-05-07 19:45:00,
2013-05-07 12:50:00,64.5,-99.9,29.93,SW,216,3.2,8.6,-999,0.00,,,0.00,homebrew,2013-05-07 19:50:00,
2013-05-07 12:55:00,65.0,-99.9,29.93,SW,221,3.7,7.0,-999,0.00,,,0.00,homebrew,2013-05-07 19:55:00,
2013-05-07 13:00:00,65.1,-99.9,29.93,SW,218,3.3,10.0,-999,0.00,,,0.00,homebrew,2013-05-07 20:00:00,
2013-05-07 13:05:00,65.2,-99.9,29.92,SSW,204,3.0,7.6,-999,0.00,,,0.00,homebrew,2013-05-07 20:05:00,
2013-05-07 13:10:00,65.3,-99.9,29.92,SW,228,3.1,9.6,-999,0.00,,,0.00,homebrew,2013-05-07 20:10:00,
2013-05-07 13:15:00,64.4,-99.9,29.92,WSW,255,3.3,7.8,-999,0.00,,,0.00,homebrew,2013-05-07 20:15:00,
2013-05-07 13:20:00,65.0,-99.9,29.92,WSW,240,3.4,7.0,-999,0.00,,,0.00,homebrew,2013-05-07 20:20:00,
2013-05-07 13:25:00,65.9,-99.9,29.92,SW,219,3.2,9.4,-999,0.00,,,0.00,homebrew,2013-05-07 20:25:00,
2013-05-07 13:30:00,66.0,-99.9,29.92,SW,214,2.7,8.1,-999,0.00,,,0.00,homebrew,2013-05-07 20:30:00,
2013-05-07 13:35:00,66.3,-99.9,29.92,SW,217,3.5,7.0,-999,0.00,,,0.00,homebrew,2013-05-07 20:35:00,
2013-05-07 13:40:00,66.7,-99.9,29.92,WSW,241,2.4,8.0,-999,0.00,,,0.00,homebrew,2013-05-07 20:40:00,
2013-05-07 13:45:00,67.1,-99.9,29.92,SSW,201,2.2,5.4,-999,0.00,,,0.00,homebrew,2013-05-07 20:45:00,
2013-05-07 13:50:00,66.9,-99.9,29.92,SW,217,3.8,6.2,-999,0.00,,,0.00,homebrew,2013-05-07 20:50:00,
2013-05-07 14:00:00,66.8,-99.9,29.92,WSW,237,3.2,9.6,-999,0.00,,,0.00,homebrew,2013-05-07 21:00:00,
2013-05-07 14:05:00,66.5,-99.9,29.92,SW,215,2.8,7.8,-999,0.00,,,0.00,homebrew,2013-05-07 21:05:00,
2013-05-07 14:15:00,67.2,-99.9,29.92,WSW,247,3.4,8.5,-999,0.00,,,0.00,homebrew,2013-05-07 21:15:00,
2013-05-07 14:20:00,67.2,-99.9,29.92,SW,228,2.6,9.6,-999,0.00,,,0.00,homebrew,2013-05-07 21:20:00,
2013-05-07 14:25:00,67.2,-99.9,29.92,WSW,241,4.5,6.5,-999,0.00,,,0.00,homebrew,2013-05-07 21:25:00,
2013-05-07 14:30:00,67.1,-99.9,29.92,SW,235,3.4,9.3,-999,0.00,,,0.00,homebrew,2013-05-07 21:30:00,
2013-05-07 14:35:00,67.6,-99.9,29.92,SW,215,2.6,9.1,-999,0.00,,,0.00,homebrew,2013-05-07 21:35:00,
2013-05-07 14:40:00,68.3,-99.9,29.92,SSW,210,2.9,6.5,-999,0.00,,,0.00,homebrew,2013-05-07 21:40:00,
2013-05-07 14:50:00,68.3,-99.9,29.91,SW,215,3.2,11.0,-999,0.00,,,0.00,homebrew,2013-05-07 21:50:00,
2013-05-07 14:55:00,68.1,-99.9,29.91,SW,225,3.4,6.2,-999,0.00,,,0.00,homebrew,2013-05-07 21:55:00,
2013-05-07 15:00:00,67.4,-99.9,29.91,WSW,245,4.0,9.6,-999,0.00,,,0.00,homebrew,2013-05-07 22:00:00,
2013-05-07 15:05:00,68.2,-99.9,29.91,South,182,1.4,10.3,-999,0.00,,,0.00,homebrew,2013-05-07 22:05:00,
2013-05-07 15:10:00,69.5,-99.9,29.91,SW,227,2.6,5.2,-999,0.00,,,0.00,homebrew,2013-05-07 22:10:00,
2013-05-07 15:15:00,69.5,-99.9,29.91,SW,230,3.4,7.5,-999,0.00,,,0.00,homebrew,2013-05-07 22:15:00,
2013-05-07 15:20:00,69.2,-99.9,29.91,SW,221,3.5,7.6,-999,0.00,,,0.00,homebrew,2013-05-07 22:20:00,
2013-05-07 15:25:00,69.2,-99.9,29.91,SW,234,3.7,8.2,-999,0.00,,,0.00,homebrew,2013-05-07 22:25:00,
2013-05-07 15:30:00,69.5,-99.9,29.90,SW,221,3.0,6.8,-999,0.00,,,0.00,homebrew,2013-05-07 22:30:00,
2013-05-07 15:40:00,69.2,-99.9,29.90,WSW,245,3.7,8.3,-999,0.00,,,0.00,homebrew,2013-05-07 22:40:00,
2013-05-07 15:45:00,69.8,-99.9,29.91,WSW,240,3.3,7.6,-999,0.00,,,0.00,homebrew,2013-05-07 22:45:00,
2013-05-07 15:50:00,70.5,-99.9,29.90,SSW,200,2.1,7.5,-999,0.00,,,0.00,homebrew,2013-05-07 22:50:00,
2013-05-07 15:55:00,71.8,-99.9,29.90,SW,220,2.5,8.6,-999,0.00,,,0.00,homebrew,2013-05-07 22:55:00,
2013-05-07 16:00:00,71.8,-99.9,29.90,SW,223,3.1,8.1,-999,0.00,,,0.00,homebrew,2013-05-07 23:00:00,
2013-05-07 16:05:00,71.7,-99.9,29.90,WSW,238,2.3,6.5,-999,0.00,,,0.00,homebrew,2013-05-07 23:05:00,
2013-05-07 16:10:00,71.1,-99.9,29.90,WSW,237,4.1,8.6,-999,0.00,,,0.00,homebrew,2013-05-07 23:10:00,
2013-05-07 16:15:00,71.1,-99.9,29.90,SW,226,2.1,9.9,-999,0.00,,,0.00,homebrew,2013-05-07 23:15:00,
2013-05-07 16:20:00,71.6,-99.9,29.90,SSW,201,1.9,5.8,-999,0.00,,,0.00,homebrew,2013-05-07 23:20:00,
2013-05-07 16:30:00,71.6,-99.9,29.89,SSW,196,2.0,9.1,-999,0.00,,,0.00,homebrew,2013-05-07 23:30:00,
2013-05-07 16:35:00,71.7,-99.9,29.89,WSW,246,2.7,6.0,-999,0.00,,,0.00,homebrew,2013-05-07 23:35:00,
2013-05-07 16:40:00,70.9,-99.9,29.89,SW,232,3.2,8.8,-999,0.00,,,0.00,homebrew,2013-05-07 23:40:00,
2013-05-07 16:45:00,70.4,-99.9,29.89,West,263,3.2,6.7,-999,0.00,,,0.00,homebrew,2013-05-07 23:45:00,
2013-05-07 16:50:00,70.4,-99.9,29.89,SSW,210,2.4,7.7,-999,0.00,,,0.00,homebrew,2013-05-07 23:50:00,
2013-05-07 16:55:00,71.3,-99.9,29.89,SW,229,2.2,7.1,-999,0.00,,,0.00,homebrew,2013-05-07 23:55:00,
2013-05-07 17:00:00,71.1,-99.9,29.89,WSW,239,2.3,5.2,-999,0.00,,,0.00,homebrew,2013-05-08 00:00:00,
2013-05-07 17:05:00,70.9,-99.9,29.89,WSW,243,2.2,6.0,-999,0.00,,,0.00,homebrew,2013-05-08 00:05:00,
2013-05-07 17:10:00,70.8,-99.9,29.89,SW,219,2.4,4.9,-999,0.00,,,0.00,homebrew,2013-05-08 00:10:00,
2013-05-07 17:15:00,71.1,-99.9,29.89,SSW,194,2.0,6.0,-999,0.00,,,0.00,homebrew,2013-05-08 00:15:00,
2013-05-07 17:20:00,71.9,-99.9,29.89,SSW,199,0.6,5.0,-999,0.00,,,0.00,homebrew,2013-05-08 00:20:00,
2013-05-07 17:25:00,72.7,-99.9,29.89,SSW,201,1.7,2.6,-999,0.00,,,0.00,homebrew,2013-05-08 00:25:00,
2013-05-07 17:30:00,72.5,-99.9,29.89,SSW,203,1.7,5.5,-999,0.00,,,0.00,homebrew,2013-05-08 00:30:00,
2013-05-07 17:35:00,71.5,-99.9,29.89,South,169,1.1,6.7,-999,0.00,,,0.00,homebrew,2013-05-08 00:35:00,
2013-05-07 17:40:00,71.4,-99.9,29.89,SSW,200,0.9,3.4,-999,0.00,,,0.00,homebrew,2013-05-08 00:40:00,
2013-05-07 17:45:00,71.8,-99.9,29.89,SSW,194,0.6,2.8,-999,0.00,,,0.00,homebrew,2013-05-08 00:45:00,
2013-05-07 17:50:00,72.0,-99.9,29.89,SW,224,1.7,4.3,-999,0.00,,,0.00,homebrew,2013-05-08 00:50:00,
2013-05-07 17:55:00,71.8,-99.9,29.89,SSW,202,0.7,5.3,-999,0.00,,,0.00,homebrew,2013-05-08 00:55:00,
2013-05-07 18:00:00,71.3,-99.9,29.89,SSE,159,0.8,3.7,-999,0.00,,,0.00,homebrew,2013-05-08 01:00:00,
2013-05-07 18:05:00,70.7,-99.9,29.89,SW,226,1.2,3.7,-999,0.00,,,0.00,homebrew,2013-05-08 01:05:00,
2013-05-07 18:10:00,70.0,-99.9,29.89,SSW,195,0.9,5.4,-999,0.00,,,0.00,homebrew,2013-05-08 01:10:00,
2013-05-07 18:15:00,69.6,-99.9,29.89,South,187,0.2,4.4,-999,0.00,,,0.00,homebrew,2013-05-08 01:15:00,
2013-05-07 18:25:00,68.9,-99.9,29.89,SW,229,0.8,5.5,-999,0.00,,,0.00,homebrew,2013-05-08 01:25:00,
2013-05-07 18:30:00,68.7,-99.9,29.89,WSW,237,1.7,3.5,-999,0.00,,,0.00,homebrew,2013-05-08 01:30:00,
2013-05-07 18:35:00,68.3,-99.9,29.89,SSW,200,0.7,3.8,-999,0.00,,,0.00,homebrew,2013-05-08 01:35:00,
2013-05-07 18:40:00,68.2,-99.9,29.89,SW,224,1.4,3.1,-999,0.00,,,0.00,homebrew,2013-05-08 01:40:00,
2013-05-07 18:45:00,68.1,-99.9,29.89,SSW,212,1.2,4.7,-999,0.00,,,0.00,homebrew,2013-05-08 01:45:00,
2013-05-07 18:50:00,67.9,-99.9,29.89,SW,218,1.9,4.0,-999,0.00,,,0.00,homebrew,2013-05-08 01:50:00,
2013-05-07 18:55:00,67.9,-99.9,29.89,SSW,206,1.0,6.6,-999,0.00,,,0.00,homebrew,2013-05-08 01:55:00,
2013-05-07 19:00:00,67.8,-99.9,29.89,SSW,211,1.6,5.0,-999,0.00,,,0.00,homebrew,2013-05-08 02:00:00,
2013-05-07 19:05:00,67.6,-99.9,29.89,WSW,258,0.7,5.7,-999,0.00,,,0.00,homebrew,2013-05-08 02:05:00,
2013-05-07 19:10:00,67.4,-99.9,29.89,SSW,204,1.0,4.3,-999,0.00,,,0.00,homebrew,2013-05-08 02:10:00,
2013-05-07 19:15:00,67.4,-99.9,29.89,SW,222,2.5,3.3,-999,0.00,,,0.00,homebrew,2013-05-08 02:15:00,
2013-05-07 19:20:00,67.3,-99.9,29.89,SW,217,1.7,5.2,-999,0.00,,,0.00,homebrew,2013-05-08 02:20:00,
2013-05-07 19:30:00,67.0,-99.9,29.89,SW,228,2.7,6.0,-999,0.00,,,0.00,homebrew,2013-05-08 02:30:00,
2013-05-07 19:35:00,66.6,-99.9,29.89,SW,228,2.8,6.2,-999,0.00,,,0.00,homebrew,2013-05-08 02:35:00,
2013-05-07 19:45:00,66.0,-99.9,29.89,SSW,206,2.5,6.8,-999,0.00,,,0.00,homebrew,2013-05-08 02:45:00,
2013-05-07 19:50:00,65.8,-99.9,29.89,SW,219,3.5,8.6,-999,0.00,,,0.00,homebrew,2013-05-08 02:50:00,
2013-05-07 19:55:00,65.6,-99.9,29.89,SW,216,2.8,8.0,-999,0.00,,,0.00,homebrew,2013-05-08 02:55:00,
2013-05-07 20:00:00,65.3,-99.9,29.89,SSW,210,2.0,6.2,-999,0.00,,,0.00,homebrew,2013-05-08 03:00:00,
2013-05-07 20:05:00,65.1,-99.9,29.89,South,183,1.5,5.0,-999,0.00,,,0.00,homebrew,2013-05-08 03:05:00,
2013-05-07 20:10:00,64.9,-99.9,29.90,SSW,208,2.2,6.6,-999,0.00,,,0.00,homebrew,2013-05-08 03:10:00,
2013-05-07 20:20:00,64.3,-99.9,29.90,SW,216,3.1,5.7,-999,0.00,,,0.00,homebrew,2013-05-08 03:20:00,
2013-05-07 20:25:00,64.2,-99.9,29.90,SW,219,2.3,5.6,-999,0.00,,,0.00,homebrew,2013-05-08 03:25:00,
2013-05-07 20:30:00,63.8,-99.9,29.90,SW,227,2.7,6.3,-999,0.00,,,0.00,homebrew,2013-05-08 03:30:00,
2013-05-07 20:35:00,63.4,-99.9,29.90,SW,233,1.6,5.9,-999,0.00,,,0.00,homebrew,2013-05-08 03:35:00,
2013-05-07 20:40:00,63.0,-99.9,29.90,WSW,239,2.1,3.0,-999,0.00,,,0.00,homebrew,2013-05-08 03:40:00,
2013-05-07 20:45:00,62.7,-99.9,29.91,SW,231,2.0,4.9,-999,0.00,,,0.00,homebrew,2013-05-08 03:45:00,
2013-05-07 20:50:00,62.5,-99.9,29.91,SW,223,2.5,5.5,-999,0.00,,,0.00,homebrew,2013-05-08 03:50:00,
2013-05-07 20:55:00,62.4,-99.9,29.91,SW,224,2.5,6.2,-999,0.00,,,0.00,homebrew,2013-05-08 03:55:00,
2013-05-07 21:00:00,62.2,-99.9,29.91,SW,223,2.5,5.8,-999,0.00,,,0.00,homebrew,2013-05-08 04:00:00,
2013-05-07 21:05:00,62.0,-99.9,29.91,SW,216,2.0,4.9,-999,0.00,,,0.00,homebrew,2013-05-08 04:05:00,
2013-05-07 21:10:00,61.7,-99.9,29.91,SW,220,1.9,3.9,-999,0.00,,,0.00,homebrew,2013-05-08 04:10:00,
2013-05-07 21:15:00,61.5,-99.9,29.91,SW,220,2.5,4.5,-999,0.00,,,0.00,homebrew,2013-05-08 04:15:00,
2013-05-07 21:25:00,61.2,-99.9,29.92,SW,223,2.4,4.0,-999,0.00,,,0.00,homebrew,2013-05-08 04:25:00,
2013-05-07 21:30:00,61.0,-99.9,29.92,SW,235,3.3,6.0,-999,0.00,,,0.00,homebrew,2013-05-08 04:30:00,
2013-05-07 21:35:00,60.9,-99.9,29.92,SW,219,2.7,6.0,-999,0.00,,,0.00,homebrew,2013-05-08 04:35:00,
2013-05-07 21:40:00,60.8,-99.9,29.92,SW,228,3.1,6.4,-999,0.00,,,0.00,homebrew,2013-05-08 04:40:00,
2013-05-07 21:45:00,60.5,-99.9,29.93,SW,226,2.8,7.3,-999,0.00,,,0.00,homebrew,2013-05-08 04:45:00,
2013-05-07 21:55:00,60.0,-99.9,29.93,SW,225,2.5,7.2,-999,0.00,,,0.00,homebrew,2013-05-08 04:55:00,
2013-05-07 22:00:00,59.7,-99.9,29.93,SW,224,2.7,6.3,-999,0.00,,,0.00,homebrew,2013-05-08 05:00:00,
2013-05-07 22:05:00,59.5,-99.9,29.93,SW,233,2.7,6.5,-999,0.00,,,0.00,homebrew,2013-05-08 05:05:00,
2013-05-07 22:15:00,59.2,-99.9,29.94,SW,214,2.0,5.9,-999,0.00,,,0.00,homebrew,2013-05-08 05:15:00,
2013-05-07 22:20:00,59.0,-99.9,29.94,SW,223,2.6,5.7,-999,0.00,,,0.00,homebrew,2013-05-08 05:20:00,
2013-05-07 22:25:00,58.8,-99.9,29.94,SW,220,2.7,6.4,-999,0.00,,,0.00,homebrew,2013-05-08 05:25:00,
2013-05-07 22:30:00,58.5,-99.9,29.94,SW,215,3.2,7.2,-999,0.00,,,0.00,homebrew,2013-05-08 05:30:00,
2013-05-07 22:35:00,58.3,-99.9,29.94,SW,215,3.0,7.3,-999,0.00,,,0.00,homebrew,2013-05-08 05:35:00,
2013-05-07 22:40:00,58.1,-99.9,29.94,SW,214,3.3,5.8,-999,0.00,,,0.00,homebrew,2013-05-08 05:40:00,
2013-05-07 22:45:00,57.8,-99.9,29.95,SW,217,3.5,7.0,-999,0.00,,,0.00,homebrew,2013-05-08 05:45:00,
2013-05-07 22:50:00,57.6,-99.9,29.95,SW,224,4.3,7.0,-999,0.00,,,0.00,homebrew,2013-05-08 05:50:00,
2013-05-07 22:55:00,57.4,-99.9,29.95,SW,223,3.8,8.6,-999,0.00,,,0.00,homebrew,2013-05-08 05:55:00,
2013-05-07 23:00:00,57.1,-99.9,29.95,SW,222,3.1,8.9,-999,0.00,,,0.00,homebrew,2013-05-08 06:00:00,
2013-05-07 23:05:00,56.9,-99.9,29.96,SW,225,3.2,7.3,-999,0.00,,,0.00,homebrew,2013-05-08 06:05:00,
2013-05-07 23:10:00,56.8,-99.9,29.95,SW,220,3.4,6.8,-999,0.00,,,0.00,homebrew,2013-05-08 06:10:00,
2013-05-07 23:15:00,56.6,-99.9,29.96,SW,218,2.8,8.3,-999,0.00,,,0.00,homebrew,2013-05-08 06:15:00,
2013-05-07 23:20:00,56.4,-99.9,29.96,SSW,212,2.2,8.5,-999,0.00,,,0.00,homebrew,2013-05-08 06:20:00,
2013-05-07 23:25:00,56.1,-99.9,29.96,SSW,196,1.9,6.0,-999,0.00,,,0.00,homebrew,2013-05-08 06:25:00,
2013-05-07 23:30:00,55.9,-99.9,29.96,SW,217,3.0,5.6,-999,0.00,,,0.00,homebrew,2013-05-08 06:30:00,
2013-05-07 23:35:00,55.6,-99.9,29.97,SSW,206,2.8,7.7,-999,0.00,,,0.00,homebrew,2013-05-08 06:35:00,
2013-05-07 23:40:00,55.4,-99.9,29.97,SW,214,3.1,7.4,-999,0.00,,,0.00,homebrew,2013-05-08 06:40:00,
2013-05-07 23:45:00,55.2,-99.9,29.97,SW,214,1.9,7.8,-999,0.00,,,0.00,homebrew,2013-05-08 06:45:00,
2013-05-07 23:50:00,55.0,-99.9,29.97,SSW,207,2.4,5.4,-999,0.00,,,0.00,homebrew,2013-05-08 06:50:00,
2013-05-07 23:55:00,54.8,-99.9,29.97,South,189,2.2,7.3,-999,0.00,,,0.00,homebrew,2013-05-08 06:55:00,